Weather History for Springfield, IL

Change the Weather History Date:

Friday, October 26, 2012

  Actual Average Record
Temperature  
Mean Temperature 44 °F 52 °F  
Max Temperature 50 °F 62 °F 85 °F (1963)
Min Temperature 37 °F 41 °F 22 °F (1962)
Degree Days  
Heating Degree Days 21 13  
Month to date heating degree days 248 256  
Since 1 July heating degree days 332 337  
Cooling Degree Days 0 0  
Month to date cooling degree days 13 19  
Year to date cooling degree days 1533 1118  
Moisture  
Dew Point 31 °F    
Average Humidity 61    
Maximum Humidity 76    
Minimum Humidity 46    
Precipitation  
Precipitation 0.00 in 0.10 in 0.94 in (1919)
Month to date precipitation 5.03 2.63  
Year to date precipitation 25.65 31.18  
Snow  
Snow 0.00 in 0.00 in T in (1980)
Month to date snowfall 0.0 0.0  
Since 1 July snowfall 0.0 0.0  
Since 1 September snowfall 0.0 0.0  
Snow Depth 0.00 in    
Sea Level Pressure  
Sea Level Pressure 30.30 in    
Wind  
Wind Speed 12 mph (NNW)    
Max Wind Speed 20 mph    
Max Gust Speed 26 mph    
Visibility 10 miles    
Events      
T = Trace of Precipitation, MM = Missing Value Source: NWS Daily Summary

Daily Weather History Graph

Daily Weather History Graph

Search for Another Location

Airport:

Trip Planner

Search our weather history database for the weather conditions in past years. The results will help you decide how hot, cold, wet, or windy it might be!

Date:

Astronomy

Oct. 26, 2012 Rise Set
Actual Time 7:21 AM CDT 6:03 PM CDT
Civil Twilight 6:53 AM CDT 6:30 PM CDT
Nautical Twilight 6:21 AM CDT 7:02 PM CDT
Astronomical Twilight 5:50 AM CDT 7:33 PM CDT
Moon 4:18 PM CDT (10/26) 4:17 AM CDT (10/26)
Length of Visible Light 11h 37m
Length of Day
10h 41m
Waxing Gibbous, 91% of the Moon is Illuminated
Oct 26
Waxing Gibbous
Oct 29
Full
Nov 6
Last Quarter
Nov 13
New
Nov 20
First Quarter

Hourly Weather History & Observations

Time (CDT) Temp. Windchill Dew Point Humidity Pressure Visibility Wind Dir Wind Speed Gust Speed Precip Events Conditions
12:52 AM 43.0 °F 35.4 °F 36.0 °F 76% 30.18 in 10.0 mi NNW 16.1 mph - N/A   Overcast
1:52 AM 42.1 °F 34.9 °F 35.1 °F 76% 30.19 in 10.0 mi NNW 13.8 mph - N/A   Overcast
2:52 AM 42.1 °F 34.2 °F 33.1 °F 70% 30.24 in 10.0 mi NNW 16.1 mph 23.0 mph N/A   Overcast
3:52 AM 41.0 °F 33.1 °F 32.0 °F 70% 30.26 in 10.0 mi North 15.0 mph - N/A   Overcast
4:52 AM 39.9 °F 31.8 °F 30.0 °F 68% 30.27 in 10.0 mi NNW 15.0 mph - N/A   Overcast
5:52 AM 39.9 °F 32.5 °F 30.0 °F 68% 30.27 in 10.0 mi NW 12.7 mph - N/A   Overcast
6:52 AM 39.0 °F 32.8 °F 28.9 °F 67% 30.30 in 10.0 mi NNW 9.2 mph - N/A   Overcast
7:16 AM 37.4 °F 32.1 °F 28.4 °F 70% 30.30 in 10.0 mi North 6.9 mph - N/A   Scattered Clouds
7:52 AM 37.9 °F 31.5 °F 30.0 °F 73% 30.32 in 10.0 mi NNW 9.2 mph - N/A   Clear
8:52 AM 37.9 °F 28.9 °F 30.0 °F 73% 30.35 in 10.0 mi NNW 16.1 mph 21.9 mph N/A   Clear
9:52 AM 37.9 °F 29.6 °F 30.0 °F 73% 30.36 in 10.0 mi North 13.8 mph - N/A   Clear
10:52 AM 43.0 °F 35.1 °F 30.0 °F 60% 30.36 in 10.0 mi North 17.3 mph 26.5 mph N/A   Clear
11:52 AM 45.0 °F 37.9 °F 30.9 °F 58% 30.36 in 10.0 mi NNE 16.1 mph - N/A   Clear
12:52 PM 46.9 °F - 30.9 °F 54% 30.33 in 10.0 mi NNW 13.8 mph 25.3 mph N/A   Clear
1:52 PM 50.0 °F - 30.9 °F 48% 30.32 in 10.0 mi NNW 13.8 mph 21.9 mph N/A   Clear
2:52 PM 50.0 °F - 30.0 °F 46% 30.31 in 10.0 mi NNW 8.1 mph 18.4 mph N/A   Clear
3:52 PM 50.0 °F - 30.0 °F 46% 30.31 in 10.0 mi North 10.4 mph - N/A   Clear
4:52 PM 48.0 °F - 30.0 °F 50% 30.30 in 10.0 mi North 9.2 mph - N/A   Clear
5:52 PM 46.0 °F 41.0 °F 30.0 °F 54% 30.30 in 10.0 mi North 10.4 mph - N/A   Clear
6:52 PM 44.1 °F 40.1 °F 30.0 °F 58% 30.31 in 10.0 mi North 6.9 mph - N/A   Clear
7:52 PM 43.0 °F 38.8 °F 30.0 °F 60% 30.33 in 10.0 mi North 6.9 mph - N/A   Clear
8:52 PM 42.1 °F 37.1 °F 30.0 °F 62% 30.32 in 10.0 mi NNW 8.1 mph - N/A   Clear
9:52 PM 42.1 °F 35.7 °F 30.0 °F 62% 30.34 in 10.0 mi NNW 11.5 mph - N/A   Clear
10:52 PM 41.0 °F 34.3 °F 28.9 °F 62% 30.33 in 10.0 mi North 11.5 mph - N/A   Clear
11:52 PM 39.9 °F 32.1 °F 28.9 °F 65% 30.34 in 10.0 mi NNW 13.8 mph - N/A   Clear